Погода в Анцио

Италия     41°27′04″N   12°37′30″E
темп.,
°C
ветер,
м/с
пор.,
м/с
влажн.,
%
обл.,
%
осадки,
мм/ч
давл.,
гПа
погр.,
м
17 сентября, пт
пт1723:00+22вюв587082 0.0 1017227
02:00+24юв5864100 0.1 1016379
05:00+21в597993 3.9 1014245
08:00+21в598862 10.3 1013279
11:00+22юв6108158 0.6 1015479
14:00+25ююв8107059 2.5 1014865
17:00+27ю346515 1.9 1012790
20:00+23ююв22845 3.1 101323
18 сентября, сб
сб1823:00+22в228699 0.9 101433
02:00+21в11885 1.6 101325
05:00+21всв11870 0.5 101343
08:00+21вюв22830 0.5 101499
11:00+25ю33660 0.0 1014849
14:00+27ююз44550 0.0 1014955
17:00+25юз44600 0.0 1013706
20:00+22ю1179100 0.0 101364
19 сентября, вс
вс1923:00+21зсз1182100 0.0 101460
02:00+20с11854 0.0 101455
05:00+20с11860 0.0 101332
08:00+21ссз12810 0.0 1014116
11:00+25з44630 0.0 10151013
14:00+26зюз55610 0.0 10141048
17:00+25з466727 0.0 10141112
20:00+22зюз468027 0.1 1014279
20 сентября, пн
пн2023:00+21зсз23730 0.0 1015181
02:00+20зсз23715 0.0 1015199
05:00+19зюз12731 0.0 1015200
08:00+20ю1370100 0.0 1015273
11:00+24юз5657100 0.0 10161421
14:00+25юз6656100 0.0 10151342
17:00+23зюз5662100 0.0 10151180
20:00+21зюз3369100 0.0 1016251
21 сентября, вт
вт2123:00+20всв117620 0.2 101773
02:00+19ссв22781 0.2 101642
05:00+18в22815 0.0 101638
08:00+19всв22744 0.0 101777
11:00+24ююз11515 0.0 1018825
14:00+26зюз43474 0.0 10181093
17:00+25з445385 0.0 1017487
20:00+21сз34693 0.0 101799